Weather in Ueckermünde

Germany     53°44′19″N   14°02′31″E
temp.,
°C
wind,
m/s
gust,
m/s
humid.,
%
clouds,
%
prec.,
mm/h
press.,
hPa
HPBL,
m
19 may, wed
wed1923:00+9w22876 0.0 101153
02:00+7w36915 0.0 1012128
05:00+6w37945 0.0 1012153
08:00+10w468633 0.0 1013374
11:00+13wnw457399 0.6 1013941
14:00+12nnw358034 2.6 1014830
17:00+13nw346714 1.3 1014996
20:00+12nnw22725 1.3 101459
20 may, thu
thu2023:00+8w228594 0.0 101559
02:00+7w34908 0.0 101580
05:00+7w369245 0.0 1016147
08:00+10w46770 0.0 1017461
11:00+13w575713 0.0 10171383
14:00+14w685664 0.1 10171481
17:00+13wnw586423 0.1 10171151
20:00+12w367013 0.2 1017314
21 may, fri
fri2123:00+9wsw3487100 0.0 101798
02:00+8ssw3887100 0.0 1015185
05:00+9sw3979100 0.1 1013320
08:00+11s467612 0.1 1011314
11:00+16ssw695597 0.0 10091147
14:00+13sw51175100 0.3 10081016
17:00+13ssw7117346 0.1 1007910
20:00+13ssw612795 0.1 1005792
22 may, sat
sat2223:00+11ssw6129099 0.2 1005459
02:00+10ssw41094100 0.3 1004333
05:00+9ssw499799 0.4 1004374
08:00+11s599140 0.7 1004581
11:00+13sw587775 1.0 10041136
14:00+14sw597287 2.3 10041354
17:00+12sw598252 0.8 1004727
20:00+12ssw498583 1.6 1003609
23 may, sun
sun2323:00+10ssw41091100 0.1 1003564
02:00+10ssw61194100 0.6 1002815
05:00+10sw71395100 2.0 1003856
08:00+10w9138887 2.3 10051011
11:00+11w91371100 0.2 10081289
14:00+14w8105484 0.4 10102008
17:00+14w6105054 0.1 10101773
20:00+11sw51083100 0.4 1011720